When you browse on this site, cookies collect data to enhance your experience and personalize the content and advertising you see.
Visit our Privacy Policy to learn more. By continuing to use the site, you agree to this use of cookies and data.
  • In Denmark
  • List of Countries
  • For 7 days
  • Water Temperature
  • Satellite Maps
  • Weather Map
  • Weather Widgets
  • user-avatar
    Login

    Hourly Weather Brecon

    Today, 14 December, Friday

    Time Temperature Precipitation Wind Pressure Humidity
    00:00 -2°C° 0 mm 5 mps 748 mmHg 82%
    01:00 -2°C° 0 mm 5 mps 748 mmHg 83%
    02:00 -4°C° 0 mm 5 mps 748 mmHg 83%
    03:00 -3°C° 0 mm 4 mps 748 mmHg 84%
    04:00 -4°C° 0 mm 5 mps 748 mmHg 84%
    05:00 -4°C° 0 mm 5 mps 748 mmHg 83%
    06:00 -4°C° 0 mm 5 mps 748 mmHg 83%
    07:00 -2°C° 0 mm 5 mps 748 mmHg 82%
    08:00 -2°C° 0 mm 5 mps 748 mmHg 81%
    09:00 -2°C° 0 mm 5 mps 749 mmHg 81%
    10:00 -1°C° 0 mm 5 mps 749 mmHg 77%
    11:00 -1°C° 0 mm 6 mps 749 mmHg 73%
    12:00 +1°C° 0 mm 6 mps 749 mmHg 69%
    13:00 +2°C° 0 mm 6 mps 749 mmHg 70%
    14:00 +2°C° 0 mm 6 mps 749 mmHg 71%
    15:00 +2°C° 0 mm 6 mps 749 mmHg 72%
    16:00 +1°C° 0 mm 6 mps 748 mmHg 73%
    17:00 +1°C° 0 mm 6 mps 748 mmHg 75%
    18:00 -1°C° 0 mm 6 mps 748 mmHg 77%
    19:00 -1°C° 0 mm 6 mps 748 mmHg 77%
    20:00 0°C° 0 mm 7 mps 748 mmHg 77%
    21:00 0°C° 0 mm 7 mps 748 mmHg 77%
    22:00 0°C° 0 mm 7 mps 747 mmHg 77%
    23:00 0°C° 0 mm 8 mps 747 mmHg 77%

    Tomorrow, 15 December, Saturday

    Time Temperature Precipitation Wind Pressure Humidity
    00:00 0°C° 0 mm 8 mps 747 mmHg 76%
    01:00 0°C° 0.2 mm 8 mps 746 mmHg 77%
    02:00 0°C° 0.2 mm 9 mps 745 mmHg 78%
    03:00 0°C° 0.2 mm 9 mps 744 mmHg 79%
    04:00 0°C° 0.4 mm 10 mps 743 mmHg 81%
    05:00 0°C° 0.4 mm 10 mps 742 mmHg 83%
    06:00 +1°C° 0.4 mm 11 mps 741 mmHg 84%
    07:00 +1°C° 0.6 mm 11 mps 740 mmHg 86%
    08:00 +1°C° 0.6 mm 11 mps 739 mmHg 87%
    09:00 +1°C° 0.6 mm 11 mps 739 mmHg 88%
    10:00 +2°C° 1.7 mm 11 mps 737 mmHg 89%
    11:00 +3°C° 1.7 mm 11 mps 736 mmHg 90%
    12:00 +3°C° 1.7 mm 11 mps 735 mmHg 92%
    13:00 +5°C° 2.6 mm 10 mps 734 mmHg 93%
    14:00 +7°C° 2.6 mm 9 mps 732 mmHg 93%
    15:00 +9°C° 2.6 mm 8 mps 731 mmHg 94%
    16:00 +8°C° 2.9 mm 9 mps 730 mmHg 93%
    17:00 +9°C° 2.9 mm 10 mps 729 mmHg 91%
    18:00 +9°C° 2.9 mm 11 mps 728 mmHg 89%
    19:00 +8°C° 0.2 mm 11 mps 729 mmHg 87%
    20:00 +7°C° 0.2 mm 11 mps 730 mmHg 84%
    21:00 +6°C° 0.2 mm 11 mps 731 mmHg 82%
    22:00 +5°C° 0 mm 10 mps 733 mmHg 82%
    23:00 +4°C° 0 mm 8 mps 734 mmHg 81%

    Day after tomorrow, 16 December, Sunday

    Time Temperature Precipitation Wind Pressure Humidity
    00:00 +3°C° 0 mm 7 mps 735 mmHg 80%
    01:00 +3°C° 0.1 mm 7 mps 735 mmHg 82%
    02:00 +3°C° 0.1 mm 6 mps 736 mmHg 84%
    03:00 +3°C° 0.1 mm 5 mps 736 mmHg 86%
    04:00 +3°C° 0.2 mm 5 mps 736 mmHg 87%
    05:00 +2°C° 0.2 mm 5 mps 736 mmHg 87%
    06:00 +2°C° 0.2 mm 5 mps 737 mmHg 88%
    07:00 +2°C° 0.1 mm 5 mps 737 mmHg 88%
    08:00 +3°C° 0.1 mm 4 mps 737 mmHg 89%
    09:00 +3°C° 0.1 mm 4 mps 738 mmHg 89%
    10:00 +4°C° 0.1 mm 4 mps 738 mmHg 86%
    11:00 +5°C° 0.1 mm 5 mps 738 mmHg 82%
    12:00 +6°C° 0.1 mm 5 mps 738 mmHg 79%
    13:00 +6°C° 0.3 mm 5 mps 738 mmHg 81%
    14:00 +6°C° 0.3 mm 5 mps 738 mmHg 82%
    15:00 +6°C° 0.3 mm 4 mps 738 mmHg 84%
    16:00 +5°C° 0.4 mm 4 mps 738 mmHg 86%
    17:00 +5°C° 0.4 mm 4 mps 738 mmHg 88%
    18:00 +4°C° 0.4 mm 3 mps 739 mmHg 90%
    19:00 +4°C° 0.1 mm 3 mps 739 mmHg 89%
    20:00 +4°C° 0.1 mm 3 mps 739 mmHg 89%
    21:00 +3°C° 0.1 mm 3 mps 740 mmHg 89%
    22:00 +3°C° 0 mm 3 mps 740 mmHg 89%
    23:00 +3°C° 0 mm 3 mps 741 mmHg 88%

    17 December, Monday

    Time Temperature Precipitation Wind Pressure Humidity
    00:00 +3°C° 0 mm 3 mps 741 mmHg 88%
    01:00 +3°C° 0.1 mm 4 mps 741 mmHg 88%
    02:00 +3°C° 0.1 mm 4 mps 742 mmHg 88%
    03:00 +3°C° 0.1 mm 4 mps 742 mmHg 89%
    04:00 +3°C° 0.1 mm 4 mps 742 mmHg 89%
    05:00 +3°C° 0.1 mm 4 mps 743 mmHg 89%
    06:00 +3°C° 0.1 mm 4 mps 743 mmHg 89%
    07:00 +3°C° 0 mm 4 mps 743 mmHg 89%
    08:00 +3°C° 0 mm 4 mps 744 mmHg 89%
    09:00 +3°C° 0 mm 4 mps 744 mmHg 89%
    10:00 +5°C° 0 mm 5 mps 744 mmHg 87%
    11:00 +6°C° 0 mm 5 mps 744 mmHg 85%
    12:00 +7°C° 0 mm 6 mps 744 mmHg 83%
    13:00 +6°C° 0 mm 7 mps 744 mmHg 84%
    14:00 +6°C° 0 mm 7 mps 743 mmHg 84%
    15:00 +6°C° 0 mm 7 mps 743 mmHg 85%
    16:00 +7°C° 0 mm 8 mps 743 mmHg 86%
    17:00 +7°C° 0 mm 9 mps 742 mmHg 87%
    18:00 +7°C° 0 mm 10 mps 742 mmHg 88%
    19:00 +7°C° 0.1 mm 10 mps 741 mmHg 88%
    20:00 +8°C° 0.1 mm 10 mps 741 mmHg 87%
    21:00 +8°C° 0.1 mm 11 mps 741 mmHg 87%
    22:00 +8°C° 0.1 mm 11 mps 740 mmHg 86%
    23:00 +8°C° 0.1 mm 12 mps 740 mmHg 85%

    18 December, Tuesday

    Time Temperature Precipitation Wind Pressure Humidity
    00:00 +8°C° 0.1 mm 12 mps 740 mmHg 84%
    01:00 +8°C° 0.1 mm 12 mps 739 mmHg 84%
    02:00 +8°C° 0.1 mm 12 mps 738 mmHg 84%
    03:00 +8°C° 0.1 mm 13 mps 738 mmHg 83%
    04:00 +8°C° 0.2 mm 13 mps 737 mmHg 81%
    05:00 +8°C° 0.2 mm 13 mps 736 mmHg 80%
    06:00 +8°C° 0.2 mm 14 mps 735 mmHg 78%
    07:00 +6°C° 1.1 mm 14 mps 734 mmHg 78%
    08:00 +6°C° 1.1 mm 15 mps 733 mmHg 79%
    09:00 +6°C° 1.1 mm 15 mps 732 mmHg 80%
    10:00 +6°C° 2.1 mm 15 mps 732 mmHg 82%
    11:00 +5°C° 2.1 mm 14 mps 731 mmHg 83%
    12:00 +5°C° 2.1 mm 14 mps 731 mmHg 85%
    13:00 +6°C° 1.7 mm 11 mps 731 mmHg 86%
    14:00 +6°C° 1.7 mm 8 mps 731 mmHg 87%
    15:00 +7°C° 1.7 mm 6 mps 731 mmHg 87%
    16:00 +5°C° 0.3 mm 6 mps 731 mmHg 87%
    17:00 +5°C° 0.3 mm 6 mps 731 mmHg 87%
    18:00 +5°C° 0.3 mm 6 mps 732 mmHg 88%
    19:00 +5°C° 0.2 mm 7 mps 733 mmHg 87%
    20:00 +4°C° 0.2 mm 7 mps 733 mmHg 86%
    21:00 +4°C° 0.2 mm 7 mps 734 mmHg 85%
    22:00 +4°C° 0.2 mm 7 mps 734 mmHg 85%
    23:00 +4°C° 0.2 mm 7 mps 734 mmHg 85%

    19 December, Wednesday

    Time Temperature Precipitation Wind Pressure Humidity
    00:00 +4°C° 0.2 mm 7 mps 734 mmHg 85%
    01:00 +4°C° 0.1 mm 6 mps 735 mmHg 85%
    02:00 +4°C° 0.1 mm 6 mps 735 mmHg 85%
    03:00 +3°C° 0.1 mm 6 mps 735 mmHg 85%
    04:00 +3°C° 0.1 mm 6 mps 735 mmHg 85%
    05:00 +3°C° 0.1 mm 6 mps 735 mmHg 84%
    06:00 +3°C° 0.1 mm 6 mps 735 mmHg 84%
    07:00 +3°C° 0.2 mm 7 mps 735 mmHg 84%
    08:00 +3°C° 0.2 mm 7 mps 735 mmHg 83%
    09:00 +3°C° 0.2 mm 7 mps 735 mmHg 83%
    10:00 +4°C° 0.2 mm 8 mps 735 mmHg 80%
    11:00 +5°C° 0.2 mm 8 mps 735 mmHg 77%
    12:00 +5°C° 0.2 mm 9 mps 734 mmHg 74%
    13:00 +5°C° 0.2 mm 9 mps 734 mmHg 75%
    14:00 +5°C° 0.2 mm 9 mps 734 mmHg 77%
    15:00 +5°C° 0.2 mm 9 mps 733 mmHg 78%
    16:00 +5°C° 0.4 mm 9 mps 733 mmHg 79%
    17:00 +5°C° 0.4 mm 9 mps 733 mmHg 80%
    18:00 +5°C° 0.4 mm 9 mps 733 mmHg 81%
    19:00 +5°C° 0.4 mm 9 mps 733 mmHg 82%
    20:00 +5°C° 0.4 mm 8 mps 733 mmHg 82%
    21:00 +5°C° 0.4 mm 8 mps 733 mmHg 82%
    22:00 +4°C° 0.2 mm 8 mps 733 mmHg 82%
    23:00 +4°C° 0.2 mm 8 mps 733 mmHg 81%
    Show more